Location: Unspecified
(0.0000°N, 0.0000°E)
Time: 09:16:50
(UTC+00:00)

Explorer 11/Cluster Stage 4 - Pass Details

Date: 15 July 2020
Orbit: 467 x 1259 km, 28.8° (Epoch: 03 August)

Event Time Altitude Azimuth Distance (km) Brightness Sun altitude
Rises 05:12:26 0° 226° (SW) 2,578 - -12.5°
Reaches altitude 10° 05:14:49 10° 216° (SW) 1,643 - -11.9°
Exits shadow 05:15:19 13° 213° (SSW) 1,464 7.5 -11.8°
Maximum altitude 05:18:11 33° 150° (SSE) 789 6.7 -11.1°
Drops below altitude 10° 05:21:30 10° 84° (E) 1,619 9.6 -10.4°
Sets 05:23:50 0° 74° (ENE) 2,533 11.5 -9.8°
